EHI
22 12 2 0 0 0 0 0 0 0 0 0 0 0 0 0 0 0 0 0 1 0 0 0 1 2 4 4 3 2 2 2 2 2 2 2 1 0 1 1 1 0 0 0 0 0 0 0 0
15 9 2 0 0 0 0 0 0 0 0 0 0 0 0 0 0 0 0 1 1 1 0 1 1 1 2 2 1 1 1 2 3 3 2 1 0 0 1 2 1 0 0 0 0 0 0 0 0
7 3 1 0 0 0 0 0 0 0 0 0 0 0 0 0 0 0 1 2 1 1 1 1 2 1 1 0 0 0 1 3 4 4 2 0 0 0 1 1 1 0 0 0 0 0 0 0 0
2 1 0 0 0 0 0 0 0 0 0 0 0 0 0 0 1 1 2 2 1 1 1 1 2 2 2 1 1 1 2 3 5 4 3 1 0 0 0 0 0 0 0 0 0 0 0 0 0
0 0 0 0 0 0 0 0 0 0 0 0 0 0 0 0 1 1 1 2 2 1 0 1 2 2 2 2 2 3 3 3 3 3 3 2 1 0 0 0 0 0 0 0 0 0 0 0 0
0 0 0 0 0 0 0 0 0 0 0 0 0 0 0 0 1 1 0 1 1 1 0 0 1 1 1 1 1 1 1 1 1 1 1 2 2 1 1 1 1 1 1 0 0 0 0 0 0
0 0 0 0 0 0 0 0 0 0 0 0 0 0 0 0 0 0 0 0 0 0 0 0 0 0 0 0 0 0 0 0 0 0 0 1 2 2 2 2 2 2 1 0 0 0 0 0 0
0 0 0 0 0 0 0 0 0 0 0 0 0 0 0 0 0 0 0 0 0 0 0 0 0 0 0 0 0 0 0 0 0 0 0 0 1 1 1 1 1 1 1 0 0 0 0 0 0
0 0 0 0 0 0 0 0 0 0 0 0 0 0 0 0 0 0 0 0 0 0 0 0 0 0 0 0 0 0 0 0 0 0 0 0 0 0 0 0 0 0 0 0 0 0 0 0 0
0 0 0 0 0 0 0 0 0 0 0 0 0 0 0 0 0 0 0 0 0 0 0 0 0 0 0 0 0 0 0 0 0 0 0 0 0 0 0 0 0 0 0 0 0 0 0 0 0
0 0 0 0 0 0 0 0 0 0 0 0 0 0 0 0 0 0 0 0 0 0 0 0 0 0 0 0 0 0 0 0 0 0 0 0 0 0 0 0 0 0 0 0 0 0 0 0 0
0 0 0 0 0 0 0 0 0 0 0 0 0 0 0 0 0 0 0 0 0 0 0 0 0 0 0 0 0 0 0 0 0 0 0 0 0 0 0 0 0 0 0 0 0 0 0 0 0
0 0 0 0 0 0 0 0 0 0 0 0 0 0 0 0 0 0 0 0 0 0 0 0 0 0 0 0 0 0 0 0 0 0 0 0 0 0 0 0 0 0 0 0 0 0 0 1 1
0 0 0 0 0 0 0 0 0 0 0 0 0 0 0 0 0 0 0 0 0 0 0 0 0 0 0 0 0 0 0 0 0 0 0 0 0 0 0 0 0 0 0 0 0 0 0 0 0
0 0 0 0 0 0 0 0 0 1 1 1 1 0 0 0 0 0 0 0 0 0 0 0 0 0 0 0 0 0 0 0 0 0 0 0 0 0 0 0 0 0 0 0 0 0 0 0 0
0 0 0 0 0 0 0 0 1 2 2 2 1 0 0 0 0 0 0 0 0 0 0 0 0 0 0 0 0 0 0 0 0 0 0 0 0 0 0 0 0 0 0 0 0 0 0 0 0
0 0 0 0 0 0 0 0 1 2 3 1 0 0 0 0 0 0 0 0 0 0 0 0 0 0 0 0 0 0 0 0 0 0 0 0 0 0 0 0 0 0 0 0 0 0 0 0 0
0 0 0 0 0 0 0 0 1 2 3 1 0 0 0 0 0 0 0 0 0 0 0 0 0 0 0 0 0 0 0 0 0 0 0 0 0 0 0 0 0 0 0 0 0 0 0 0 0
0 0 0 0 0 0 0 0 1 2 3 2 1 0 0 0 0 0 0 0 0 0 0 0 0 0 0 0 0 0 0 0 0 0 0 0 0 0 0 0 0 0 0 0 0 0 0 0 0
0 0 0 0 0 0 0 0 0 1 2 2 1 0 0 0 0 0 0 0 0 0 0 0 0 0 0 0 0 0 0 0 0 0 0 0 0 0 0 0 0 0 0 0 0 0 0 0 0
0 0 0 0 0 0 0 0 0 0 1 1 0 0 0 0 0 0 0 0 0 0 0 0 0 0 0 0 0 0 0 0 0 0 0 0 0 0 0 0 0 0 0 0 0 0 0 0 0
0 0 0 0 0 0 0 0 0 0 0 0 0 0 0 0 0 0 0 0 0 0 0 0 0 0 0 0 0 0 0 0 0 0 0 0 0 0 0 0 0 0 0 0 0 0 0 0 0
0 0 0 0 0 0 0 0 0 0 0 0 0 0 0 0 0 0 0 0 0 0 0 0 0 0 0 0 0 0 0 0 0 0 0 0 0 0 0 0 0 0 0 0 0 0 0 0 0
0 0 0 0 0 0 0 0 0 0 0 0 0 0 0 0 0 0 0 0 0 0 0 0 0 0 0 0 0 0 0 0 0 0 0 0 0 0 0 0 0 0 0 0 0 0 0 0 0
0 0 0 0 0 0 0 0 0 0 0 0 0 0 0 0 0 0 0 0 0 0 0 0 0 0 0 0 0 0 0 0 0 0 0 0 0 0 0 0 0 0 0 0 0 0 0 0 0
0 0 0 0 0 0 0 0 0 0 0 0 0 0 0 0 0 0 0 0 0 0 0 0 0 0 0 0 0 0 0 0 0 0 0 0 0 0 0 0 0 0 0 0 0 0 0 0 0
0 0 0 0 0 0 0 0 0 0 0 0 0 0 0 0 0 0 0 0 0 0 0 0 0 0 0 0 0 0 0 0 0 0 0 0 0 0 0 0 0 0 0 0 0 0 0 0 0
0 0 0 0 0 0 0 0 0 0 0 0 0 0 0 0 0 0 0 0 0 0 0 0 0 0 0 0 0 0 0 0 0 0 0 0 0 0 0 0 0 0 0 0 0 0 0 0 0
0 0 0 0 0 0 0 0 0 0 0 0 0 0 0 0 0 0 0 0 0 0 0 0 0 0 0 0 0 0 0 0 0 0 0 0 0 0 0 0 0 0 0 0 0 0 0 0 0
0 0 0 0 0 0 0 0 0 0 0 0 0 0 0 0 0 0 0 0 0 0 0 0 0 0 0 0 0 0 0 0 0 0 0 0 0 0 0 0 0 0 0 0 0 0 0 0 0
Wind_Speed
9 5 4 2 1 2 1 2 1 2 3 5 10 10 8 6 5 5 1 2 9 7 6 7 8 8 7 6 5 4 3 3 2 2 2 3 3 2 2 2 2 2 2 2 2 2 2 2 3
4 4 2 1 2 1 1 2 1 2 6 7 8 8 8 6 5 4 2 5 9 7 6 6 8 7 6 5 4 4 3 3 2 2 2 3 3 3 2 2 2 2 2 2 1 1 1 1 1
4 2 2 1 1 3 2 2 2 5 7 6 6 6 5 3 3 2 3 7 7 6 4 5 8 7 6 5 3 3 3 2 3 3 3 3 4 4 4 4 4 4 4 3 3 2 2 1 1
3 2 2 2 1 1 2 1 2 5 7 6 7 6 4 2 2 3 6 8 7 5 4 4 7 6 5 4 3 2 2 2 2 3 3 4 5 5 6 6 6 6 5 5 5 4 4 3 3
2 3 3 1 0 1 2 2 4 5 4 5 7 6 3 1 4 5 6 7 7 5 3 4 6 5 4 3 2 1 1 1 2 3 3 4 5 6 7 7 7 7 7 6 6 6 6 5 5
2 3 3 1 1 1 2 3 6 7 6 7 7 6 2 1 4 4 5 5 5 5 3 2 4 3 2 1 1 1 2 2 3 4 4 5 5 6 7 7 8 8 8 8 8 8 7 7 7
3 2 2 3 2 1 1 2 4 5 4 3 5 6 2 1 3 4 5 4 4 4 3 1 0 0 1 1 2 3 4 4 4 5 5 5 6 6 7 8 8 8 9 9 9 9 9 9 8
4 3 2 2 3 2 1 2 4 4 3 3 4 6 4 4 3 5 5 4 3 3 2 1 0 1 2 3 4 4 5 6 6 6 6 6 7 7 8 8 9 9 9 9 10 10 10 10 10
3 4 1 4 5 4 3 4 2 4 6 5 4 4 5 6 6 6 4 3 2 2 1 1 1 1 2 2 3 4 5 6 6 6 7 6 3 4 5 7 9 9 9 10 10 11 11 11 9
3 2 4 3 5 5 5 5 5 4 5 4 4 4 6 6 6 6 5 3 2 1 1 1 1 1 2 2 2 2 3 3 3 3 4 3 3 3 4 6 8 8 9 10 10 11 11 8 3
1 3 2 1 3 5 4 3 4 7 3 5 7 7 6 6 5 5 4 4 3 2 1 1 1 2 2 2 1 1 1 2 3 3 3 3 2 2 2 2 3 4 6 4 5 5 4 3 3
1 1 1 2 3 3 4 4 3 4 6 8 9 8 6 6 5 5 5 4 3 2 1 1 1 2 2 2 2 1 1 2 2 2 2 1 2 2 2 2 2 2 2 2 2 2 3 3 4
1 1 1 3 3 4 5 4 5 4 7 8 8 8 8 7 6 5 5 5 4 3 1 0 1 2 2 2 2 2 2 2 2 2 2 1 1 2 2 2 2 2 2 2 2 2 3 3 3
5 2 1 2 3 2 4 3 5 6 8 8 8 8 7 7 7 5 5 4 3 3 1 0 1 2 2 2 2 2 2 2 2 2 2 2 1 1 2 2 2 2 2 2 2 2 3 3 3
4 3 1 1 1 2 3 2 6 8 9 9 8 7 7 6 6 6 5 5 4 3 1 1 2 2 2 2 3 2 2 2 2 2 2 2 1 1 1 2 2 2 2 2 1 2 2 2 2
3 3 1 3 3 3 4 5 6 8 10 8 7 7 6 5 5 5 5 5 4 4 3 2 3 2 2 2 2 2 2 2 2 2 2 2 2 2 1 1 2 3 2 1 1 1 1 2 2
2 1 2 4 4 4 4 6 5 8 9 8 8 7 6 5 5 4 5 5 5 4 3 2 2 2 2 2 2 3 2 2 2 2 2 2 3 2 1 2 2 2 1 1 2 1 1 1 2
4 2 3 4 5 6 5 7 5 7 8 9 7 7 6 7 6 5 5 5 5 4 4 3 2 2 2 2 2 3 3 3 3 2 3 3 2 2 1 2 2 2 1 1 1 1 1 1 2
5 3 3 5 5 6 8 8 7 8 6 7 6 6 7 7 5 5 5 4 4 4 3 2 2 2 1 1 2 2 3 3 3 3 3 3 3 2 1 1 2 2 1 2 2 1 1 1 1
3 1 2 4 4 5 5 6 5 8 9 8 8 8 8 6 5 4 4 4 4 3 2 2 1 1 1 1 1 2 2 3 3 3 4 3 3 3 2 1 2 2 1 1 1 0 0 1 1
3 4 5 5 2 1 1 4 1 2 3 4 6 7 8 10 9 6 5 4 4 3 2 2 1 1 2 2 2 2 2 3 3 4 4 4 4 3 2 2 2 1 1 1 1 1 1 1 1
4 6 7 4 2 3 3 1 4 2 3 5 5 6 7 8 7 6 5 4 4 3 3 3 1 0 2 2 2 2 2 2 3 3 3 5 4 3 2 2 2 1 1 1 2 1 1 1 1
7 5 3 2 2 2 0 4 5 2 4 5 5 6 7 7 8 7 6 6 4 4 3 2 1 1 2 2 2 2 1 2 3 3 4 4 4 4 3 2 2 2 1 1 1 1 1 1 2
3 4 5 5 4 2 3 5 4 5 7 6 5 6 7 7 7 7 5 5 3 3 2 2 1 1 2 2 2 1 2 2 3 4 4 4 3 3 4 3 2 2 2 2 2 1 1 2 2
5 6 5 5 4 5 2 4 6 5 5 8 9 8 7 7 7 7 6 5 4 4 3 2 1 1 2 2 2 2 2 2 2 3 3 3 3 3 4 3 2 2 2 2 1 1 1 2 2
4 8 6 3 4 4 3 1 4 2 3 5 7 7 7 7 7 7 7 6 5 5 4 2 2 2 2 2 2 2 2 1 2 3 2 3 2 3 4 3 3 3 3 2 1 1 1 1 1
4 3 6 6 1 1 2 1 3 1 1 3 5 6 7 7 7 7 7 6 6 5 5 4 3 2 2 2 2 2 2 2 3 3 3 2 3 3 3 3 3 3 3 2 1 1 1 0 1
5 6 5 4 2 1 2 3 5 7 7 5 6 7 7 6 6 7 6 6 5 5 4 4 3 2 2 1 1 1 2 2 2 3 3 3 4 3 4 4 3 3 3 2 1 1 1 0 0
1 2 5 4 5 5 2 6 7 10 9 8 9 8 8 8 7 7 6 6 5 4 4 3 3 2 1 1 1 1 2 2 2 3 3 3 3 3 3 3 3 3 3 2 1 1 1 1 1
4 4 6 4 2 4 3 8 5 7 7 7 7 7 7 7 7 6 6 5 4 4 4 4 3 3 2 2 1 1 1 2 3 3 4 3 3 3 3 3 3 3 3 2 1 1 1 1 1
Wind_Direction
184 147 106 86 55 42 353 290 270 1 55 58 73 80 81 61 74 111 242 113 125 138 144 140 143 141 140 141 139 139 147 150 152 157 155 156 158 162 158 146 151 137 118 112 101 77 71 60 47
149 139 113 79 92 78 293 260 89 68 127 119 72 70 74 70 74 93 85 127 127 134 137 136 134 130 132 138 142 145 150 163 177 187 188 191 196 203 210 213 211 203 193 184 179 157 116 89 49
145 158 111 79 120 170 206 230 139 80 84 93 78 55 67 75 75 101 145 137 126 123 124 131 130 132 133 137 146 149 152 169 186 198 207 216 220 224 229 231 229 224 217 215 211 203 193 195 229
141 91 74 94 152 216 184 213 124 99 71 68 99 74 56 42 114 136 137 131 127 126 126 131 128 129 134 143 151 160 175 195 208 213 218 226 230 233 234 234 233 231 227 222 216 211 210 215 231
94 93 75 72 121 9 39 70 74 75 79 83 95 92 77 25 105 121 125 123 126 133 142 136 128 126 126 134 143 163 197 233 245 248 245 248 249 245 240 237 237 234 232 227 221 218 218 220 229
68 77 85 109 43 31 25 51 77 79 97 106 101 109 131 197 132 142 131 133 135 138 143 134 131 129 135 163 186 247 267 265 266 267 264 261 262 263 257 248 244 240 236 232 225 223 224 224 228
131 114 133 150 140 63 127 64 76 89 85 87 117 111 147 225 176 148 136 131 124 123 122 116 109 154 208 243 252 263 280 285 285 282 275 270 267 268 269 264 255 246 240 234 228 226 226 226 228
146 108 98 142 147 188 188 89 102 98 91 69 92 125 165 209 158 122 114 113 114 113 114 126 184 306 301 293 279 284 294 291 291 291 292 289 282 273 271 271 265 253 245 240 234 231 229 228 229
87 80 171 189 171 181 158 112 76 65 82 58 67 129 160 149 121 109 105 88 92 98 94 91 53 335 296 281 282 295 302 306 302 299 298 295 289 280 275 272 270 258 251 245 240 237 233 230 232
87 146 219 196 164 159 153 141 134 92 83 84 89 103 119 124 124 124 128 128 123 115 93 70 53 16 350 337 339 313 309 311 303 293 293 289 278 273 279 276 276 269 263 252 245 239 236 231 226
112 190 208 146 137 140 144 131 110 123 133 167 157 153 140 126 127 129 129 134 147 155 105 63 43 22 14 343 333 321 318 314 312 304 296 292 291 289 285 279 282 283 278 265 253 244 231 217 209
89 303 173 165 132 128 133 121 101 148 175 169 162 155 142 134 141 141 137 138 135 116 104 41 34 28 7 360 335 323 320 308 308 309 312 313 306 298 289 272 273 270 266 253 244 236 233 226 222
131 217 176 161 111 116 112 130 136 154 156 154 144 139 145 148 151 146 136 130 126 108 104 41 51 45 17 9 342 353 325 306 301 310 315 327 317 307 304 290 274 270 267 253 244 237 232 230 229
174 147 106 108 110 126 142 162 138 183 166 156 151 155 161 161 157 142 125 123 123 120 137 118 60 45 38 17 342 329 329 325 330 325 321 322 313 310 312 308 296 278 264 256 241 235 235 232 225
127 112 360 264 170 158 136 221 202 183 168 166 165 167 170 167 149 146 150 147 143 139 116 65 81 46 34 8 345 346 336 342 341 328 324 327 325 317 304 299 300 286 275 267 261 260 246 241 231
95 99 232 261 184 182 141 246 239 174 169 176 177 180 178 165 149 153 156 151 140 120 96 60 53 44 16 358 342 333 333 336 323 320 321 324 317 315 318 304 287 290 294 283 264 249 255 252 241
45 156 230 269 200 177 175 235 238 179 174 182 187 189 178 152 151 160 157 143 134 124 109 83 60 37 3 348 338 331 327 326 314 317 316 310 307 306 306 296 288 300 305 286 272 249 231 246 248
211 212 227 234 213 180 208 237 219 199 184 188 191 190 173 162 172 165 148 138 128 114 104 93 60 25 8 353 346 340 336 325 321 316 302 303 303 302 304 292 298 306 316 302 284 257 251 238 239
178 188 236 242 209 181 220 237 211 199 193 187 189 180 166 170 174 156 148 134 116 99 89 78 51 4 9 355 344 331 319 316 322 318 309 308 306 305 295 294 300 301 276 272 273 244 242 251 181
164 198 256 267 223 190 231 251 223 196 196 185 178 172 163 155 153 159 151 132 123 119 102 83 51 9 350 306 280 267 281 292 297 311 324 320 315 310 301 290 285 281 274 295 289 214 193 248 166
195 183 208 227 286 272 126 338 291 208 179 173 173 168 159 160 164 167 155 146 132 128 120 104 82 22 337 326 329 341 348 336 337 333 329 322 322 319 309 307 298 290 248 260 258 215 172 221 265
228 216 203 201 133 274 151 235 281 204 170 180 179 163 160 160 159 162 158 154 151 156 140 129 121 346 330 347 6 357 349 322 297 301 308 318 326 325 319 323 324 305 278 259 260 214 181 171 199
211 224 212 199 157 330 30 137 277 164 190 204 191 173 167 164 161 164 163 160 158 156 148 144 120 337 334 354 12 15 351 299 302 319 331 333 333 337 338 331 337 327 302 270 269 270 202 179 181
173 51 31 47 71 322 238 148 235 216 201 190 187 179 171 165 162 161 160 151 151 155 147 141 122 315 326 347 4 20 350 334 342 340 338 332 328 328 331 330 332 320 310 287 268 253 221 205 190
84 78 28 10 16 263 247 135 231 236 192 174 177 182 181 172 162 161 162 163 166 169 170 163 159 288 311 331 338 334 327 326 326 318 320 323 324 317 313 323 321 311 304 299 282 251 236 211 195
162 135 151 182 219 280 0 162 257 271 180 163 167 175 178 179 175 175 178 179 181 184 183 182 190 250 292 310 314 318 321 319 310 312 309 311 299 293 305 318 321 319 316 316 311 274 248 206 199
132 151 166 138 175 310 331 346 324 332 160 165 174 176 187 189 186 184 183 184 186 190 196 196 197 233 276 290 308 327 329 330 322 321 326 318 306 311 332 335 333 334 335 333 338 319 280 225 198
143 145 96 105 130 319 312 229 225 220 220 211 198 197 200 191 187 186 186 189 193 195 198 198 195 211 238 263 303 334 327 326 326 335 333 325 321 330 340 339 342 344 342 346 0 344 327 2 288
136 106 104 113 147 150 220 261 226 201 202 200 205 202 194 187 187 187 191 194 191 186 187 198 204 202 216 242 292 344 328 331 342 340 326 322 327 334 339 334 338 343 343 347 13 4 19 30 349
166 168 140 142 200 157 170 262 267 197 196 191 199 200 192 185 184 184 186 186 184 184 189 197 197 196 214 217 209 299 317 338 345 338 330 330 332 335 340 344 347 345 347 348 2 354 15 26 345